Regional Weather Roundup
Issued by NWS Kansas City/Pleasant Hill, MO

Home | Current Version | Previous Version | Graphics & Text | Print | Product List | Glossary Off
Versions: 1 2 3 4 5 6 7 8 9 10 11 12 13 14 15 16 17 18 19 20 21 22 23 24 25 26 27 28 29 30 31 32 33 34 35 36 37 38 39 40 41 42 43 44 45 46 47 48 49 50

252
ASUS43 KEAX 300210
RWREAX

WEATHER ROUNDUP FOR EASTERN KANSAS AND NORTHWEST MISSOURI
NATIONAL WEATHER SERVICE KANSAS CITY/PLEASANT HILL MO
900 PM CDT WED MAR 29 2017

KSZ040-057-103>105-MOZ028-029-037-043-300300-
...KANSAS CITY METROPOLITAN AREA...

CITY           SKY/WX    TMP DP  RH WIND       PRES   REMARKS
K.C. INTL      CLOUDY    54  53  97 E13       29.66S
K.C. DOWNTOWN  CLOUDY    56  53  90 NE8       29.65S
LEES SUMMIT    PTCLDY    54  54 100 NE7       29.65F
OLATHE - IXD   TSTM      57  56  96 N10       29.64F FOG
OLATHE - OJC   CLOUDY    56  56 100 NE9       29.65R
LAWRENCE       TSTM      56  55  97 NE15      29.62F

$$

MOZ001>008-011>017-020>025-030>033-038>040-044>046-053-054-300300-
...NORTHERN AND CENTRAL MISSOURI...

CITY           SKY/WX    TMP DP  RH WIND       PRES   REMARKS
ST. JOSEPH     MOCLDY    54  50  86 E8        29.70R
MOSBY          PTCLDY    54  52  94 E10       29.67S
WARRENSBURG    RAIN      57  55  94 W12       29.66R
WHITEMAN AFB   MOCLDY    57  57 100 NE8       29.63F
CLINTON        PTCLDY    61  57  88 SE5       29.63S
SEDALIA        PTCLDY    60  57  89 E8        29.65F
WARSAW         NOT AVBL
CHILLICOTHE      N/A     54  52  93 VRB7      29.75R
KIRKSVILLE     LGT RAIN  51  50  96 E16G23    29.75F FOG

$$

MOZ041-047>049-056>058-063>065-088>090-097-300300-
...EASTERN AND SOUTHERN MISSOURI...

CITY           SKY/WX    TMP DP  RH WIND       PRES   REMARKS
ST. LOUIS INTL MOCLDY    63  53  70 E13       29.78F
SPIRIT OF STL  MOCLDY    65  56  72 E9        29.75F THUNDER
COLUMBIA       PTCLDY    60  58  92 E14       29.68F
JEFFERSON CITY MOCLDY    64  58  80 E15       29.67F
ROLLA          CLOUDY    62  61  96 SE6       29.70S
OSAGE BEACH    CLOUDY    66  61  84 SE8G16    29.66F
SPRINGFIELD    CLEAR     64  58  80 S10       29.65F
BRANSON        MOCLDY    66  59  77 S7        29.70F THUNDER
JOPLIN         PTCLDY    62  57  83 SW8       29.66R
WEST PLAINS    CLOUDY    71  59  65 SE8       29.71F

$$

IAZ060-094-KSZ022-034>040-054-083-096-NEZ052-066-093-300300-
...KANSAS...SOUTHEAST NEBRASKA AND IOWA...

CITY           SKY/WX    TMP DP  RH WIND       PRES   REMARKS
TOPEKA         CLOUDY    56  55  97 E8        29.62R
MANHATTAN      LGT RAIN  47  45  93 N12G18    29.64F
EMPORIA        CLOUDY    54  48  80 S15       29.61R
CHANUTE        PTCLDY    58  52  80 SW13      29.63S
WICHITA        CLOUDY    46  45  96 NW21      29.61R
OMAHA          DRIZZLE   43  38  82 NE21G29   29.82F WCI  34
LINCOLN        LGT RAIN  42  40  92 NE20G28   29.79F WCI  33
FALLS CITY     TSTM      49  48  97 N9        29.71R FOG
LAMONI         LGT RAIN  48  47  96 NE14      29.77R
DES MOINES     TSTM      44  42  93 E18G29    29.86S FOG

$$





USA.gov is the U.S. government's official web portal to all federal, state and local government web resources and services.